QPF
0.09 0.07 0.05 0.04 0.03 0.02 0.01 0.01 0.01 0.00 0.00 0.00 0.00 0.00 0.00 0.00 0.00 0.00 0.00 0.00 0.00 0.00 0.00 0.00 0.01 0.02 0.01 0.01 0.01 0.01 0.01 0.01 0.01 0.01 0.01 0.02 0.01 0.01 0.01 0.02 0.01 0.01 0.01 0.01
0.07 0.05 0.02 0.01 0.02 0.02 0.01 0.01 0.01 0.01 0.00 0.01 0.00 0.00 0.00 0.00 0.00 0.00 0.00 0.00 0.00 0.00 0.00 0.00 0.01 0.01 0.01 0.01 0.01 0.01 0.00 0.00 0.00 0.01 0.01 0.01 0.01 0.02 0.02 0.01 0.01 0.01 0.01 0.01
0.04 0.02 0.02 0.01 0.02 0.03 0.02 0.01 0.02 0.02 0.01 0.01 0.01 0.01 0.00 0.00 0.00 0.00 0.00 0.00 0.00 0.00 0.00 0.00 0.00 0.01 0.01 0.01 0.01 0.01 0.00 0.00 0.00 0.00 0.00 0.01 0.01 0.01 0.01 0.01 0.01 0.01 0.02 0.02
0.04 0.02 0.02 0.02 0.02 0.02 0.02 0.01 0.01 0.02 0.03 0.02 0.01 0.01 0.00 0.00 0.00 0.00 0.00 0.00 0.00 0.00 0.00 0.00 0.00 0.00 0.01 0.00 0.00 0.00 0.00 0.00 0.00 0.00 0.00 0.00 0.00 0.01 0.01 0.01 0.01 0.01 0.01 0.01
0.04 0.02 0.03 0.03 0.02 0.02 0.02 0.01 0.01 0.02 0.03 0.03 0.01 0.01 0.00 0.00 0.00 0.00 0.00 0.00 0.00 0.00 0.00 0.00 0.00 0.00 0.00 0.01 0.00 0.00 0.00 0.00 0.00 0.00 0.00 0.00 0.00 0.00 0.00 0.01 0.01 0.01 0.01 0.01
0.02 0.02 0.03 0.02 0.02 0.02 0.03 0.02 0.03 0.03 0.05 0.06 0.01 0.01 0.00 0.00 0.00 0.00 0.00 0.00 0.00 0.00 0.00 0.00 0.00 0.00 0.00 0.01 0.01 0.00 0.00 0.00 0.00 0.01 0.01 0.01 0.01 0.01 0.01 0.01 0.01 0.01 0.00 0.01
0.04 0.03 0.03 0.02 0.02 0.03 0.03 0.06 0.09 0.10 0.10 0.05 0.01 0.00 0.00 0.00 0.00 0.00 0.00 0.00 0.00 0.00 0.00 0.00 0.00 0.00 0.00 0.00 0.00 0.00 0.00 0.00 0.01 0.01 0.01 0.01 0.01 0.01 0.01 0.01 0.01 0.01 0.01 0.01
0.04 0.04 0.02 0.02 0.02 0.03 0.02 0.04 0.07 0.06 0.03 0.01 0.00 0.00 0.00 0.00 0.00 0.00 0.00 0.00 0.00 0.00 0.00 0.00 0.00 0.00 0.00 0.00 0.00 0.00 0.01 0.00 0.00 0.01 0.00 0.01 0.01 0.01 0.00 0.01 0.01 0.01 0.01 0.01
0.04 0.03 0.01 0.01 0.01 0.02 0.03 0.04 0.04 0.05 0.03 0.01 0.01 0.00 0.00 0.00 0.00 0.00 0.00 0.00 0.00 0.00 0.00 0.00 0.00 0.00 0.00 0.00 0.00 0.00 0.00 0.00 0.00 0.00 0.00 0.00 0.00 0.00 0.00 0.00 0.00 0.01 0.00 0.00
0.04 0.04 0.02 0.01 0.02 0.02 0.02 0.03 0.04 0.07 0.06 0.03 0.01 0.00 0.01 0.00 0.00 0.00 0.00 0.00 0.00 0.00 0.00 0.00 0.00 0.00 0.00 0.00 0.00 0.00 0.00 0.00 0.00 0.00 0.00 0.00 0.00 0.00 0.00 0.00 0.01 0.01 0.01 0.00
0.02 0.05 0.04 0.03 0.04 0.05 0.03 0.03 0.04 0.05 0.05 0.04 0.03 0.02 0.01 0.00 0.00 0.00 0.00 0.00 0.00 0.00 0.00 0.00 0.00 0.00 0.00 0.00 0.00 0.00 0.00 0.00 0.00 0.00 0.00 0.00 0.00 0.00 0.00 0.00 0.01 0.00 0.00 0.00
0.02 0.04 0.04 0.03 0.02 0.03 0.04 0.04 0.04 0.05 0.04 0.03 0.03 0.03 0.01 0.00 0.00 0.01 0.01 0.00 0.00 0.00 0.00 0.00 0.00 0.00 0.00 0.00 0.00 0.00 0.00 0.00 0.00 0.00 0.00 0.00 0.00 0.00 0.00 0.00 0.00 0.00 0.00 0.00
0.03 0.04 0.05 0.05 0.04 0.03 0.04 0.04 0.04 0.05 0.04 0.04 0.03 0.04 0.01 0.00 0.00 0.01 0.01 0.01 0.00 0.00 0.00 0.00 0.00 0.00 0.00 0.00 0.00 0.00 0.00 0.00 0.00 0.00 0.00 0.00 0.00 0.00 0.00 0.00 0.00 0.00 0.00 0.00
0.02 0.03 0.03 0.04 0.04 0.04 0.04 0.03 0.02 0.04 0.05 0.04 0.03 0.02 0.01 0.01 0.00 0.00 0.00 0.00 0.00 0.00 0.00 0.00 0.00 0.00 0.00 0.00 0.00 0.00 0.00 0.00 0.00 0.00 0.00 0.00 0.00 0.00 0.00 0.00 0.00 0.00 0.00 0.00
0.02 0.02 0.01 0.01 0.01 0.01 0.02 0.03 0.02 0.02 0.03 0.03 0.03 0.02 0.01 0.01 0.01 0.01 0.00 0.00 0.00 0.00 0.00 0.00 0.00 0.00 0.00 0.00 0.00 0.00 0.00 0.00 0.00 0.00 0.00 0.00 0.00 0.00 0.00 0.00 0.00 0.00 0.00 0.00
0.02 0.02 0.01 0.01 0.01 0.01 0.01 0.02 0.02 0.02 0.02 0.02 0.01 0.02 0.02 0.02 0.01 0.01 0.01 0.01 0.01 0.01 0.01 0.00 0.00 0.00 0.00 0.00 0.00 0.00 0.00 0.00 0.00 0.00 0.00 0.00 0.00 0.00 0.00 0.00 0.00 0.00 0.00 0.00
0.01 0.02 0.02 0.02 0.01 0.01 0.02 0.02 0.02 0.03 0.03 0.02 0.02 0.02 0.02 0.02 0.02 0.01 0.01 0.01 0.01 0.01 0.01 0.01 0.01 0.01 0.00 0.00 0.00 0.00 0.00 0.00 0.00 0.00 0.00 0.00 0.00 0.00 0.00 0.00 0.00 0.00 0.00 0.00
0.01 0.01 0.02 0.02 0.02 0.03 0.04 0.03 0.02 0.02 0.03 0.03 0.02 0.02 0.02 0.02 0.02 0.02 0.01 0.01 0.01 0.01 0.01 0.01 0.01 0.01 0.01 0.00 0.00 0.00 0.00 0.00 0.00 0.00 0.00 0.00 0.00 0.00 0.00 0.00 0.00 0.00 0.00 0.00
0.01 0.02 0.02 0.02 0.02 0.02 0.02 0.02 0.03 0.03 0.03 0.03 0.02 0.02 0.02 0.02 0.02 0.02 0.02 0.01 0.01 0.01 0.01 0.01 0.01 0.01 0.01 0.01 0.00 0.00 0.00 0.00 0.00 0.00 0.00 0.00 0.00 0.00 0.00 0.00 0.00 0.00 0.00 0.00
0.01 0.02 0.03 0.02 0.02 0.03 0.03 0.01 0.01 0.02 0.03 0.02 0.02 0.02 0.02 0.01 0.02 0.03 0.02 0.01 0.01 0.01 0.01 0.01 0.01 0.01 0.01 0.01 0.01 0.01 0.00 0.00 0.00 0.00 0.00 0.00 0.00 0.00 0.00 0.00 0.00 0.00 0.00 0.00
0.02 0.02 0.03 0.02 0.02 0.02 0.01 0.01 0.01 0.02 0.04 0.02 0.02 0.02 0.02 0.02 0.02 0.02 0.01 0.01 0.01 0.01 0.01 0.01 0.01 0.01 0.01 0.01 0.01 0.01 0.01 0.01 0.00 0.00 0.00 0.00 0.00 0.00 0.00 0.00 0.00 0.00 0.00 0.00
0.02 0.02 0.02 0.02 0.02 0.02 0.01 0.01 0.02 0.02 0.02 0.02 0.02 0.01 0.02 0.02 0.01 0.01 0.01 0.01 0.01 0.01 0.01 0.01 0.01 0.01 0.01 0.01 0.01 0.01 0.01 0.02 0.01 0.01 0.00 0.00 0.00 0.00 0.00 0.00 0.00 0.00 0.00 0.00
0.02 0.03 0.02 0.02 0.02 0.02 0.02 0.02 0.02 0.02 0.02 0.01 0.01 0.01 0.01 0.02 0.01 0.01 0.02 0.01 0.01 0.01 0.01 0.01 0.01 0.01 0.01 0.01 0.01 0.01 0.01 0.02 0.01 0.01 0.01 0.01 0.01 0.01 0.01 0.00 0.00 0.00 0.00 0.00
0.01 0.01 0.01 0.01 0.01 0.01 0.02 0.01 0.01 0.01 0.01 0.01 0.01 0.01 0.01 0.02 0.02 0.02 0.02 0.02 0.02 0.02 0.02 0.02 0.02 0.02 0.02 0.01 0.01 0.01 0.01 0.01 0.01 0.01 0.01 0.01 0.01 0.01 0.01 0.01 0.01 0.01 0.00 0.00
0.01 0.01 0.01 0.01 0.01 0.01 0.01 0.01 0.01 0.01 0.01 0.01 0.01 0.01 0.02 0.02 0.02 0.02 0.02 0.02 0.02 0.02 0.02 0.02 0.02 0.02 0.02 0.01 0.01 0.01 0.01 0.01 0.01 0.01 0.01 0.01 0.01 0.01 0.01 0.01 0.01 0.01 0.01 0.01
0.01 0.01 0.01 0.01 0.01 0.01 0.01 0.01 0.01 0.01 0.01 0.01 0.01 0.02 0.02 0.01 0.01 0.02 0.02 0.02 0.02 0.02 0.02 0.02 0.02 0.02 0.01 0.01 0.01 0.01 0.01 0.01 0.01 0.01 0.01 0.01 0.01 0.01 0.01 0.01 0.01 0.01 0.01 0.01
MSLP
1014.05 1013.94 1013.75 1013.52 1013.30 1013.13 1013.05 1013.06 1013.17 1013.35 1013.57 1013.81 1014.04 1014.25 1014.44 1014.62 1014.83 1015.07 1015.38 1015.76 1016.22 1016.76 1017.36 1018.00 1018.66 1019.32 1019.95 1020.53 1021.07 1021.55 1021.98 1022.36 1022.69 1022.98 1023.23 1023.46 1023.64 1023.79 1023.89 1023.94 1023.93 1023.87 1023.77 1023.63
1014.16 1013.91 1013.59 1013.28 1013.01 1012.86 1012.83 1012.94 1013.16 1013.44 1013.73 1013.99 1014.18 1014.30 1014.36 1014.39 1014.44 1014.55 1014.76 1015.10 1015.56 1016.14 1016.82 1017.55 1018.31 1019.05 1019.75 1020.39 1020.97 1021.49 1021.94 1022.35 1022.71 1023.04 1023.32 1023.57 1023.77 1023.92 1024.01 1024.05 1024.03 1023.97 1023.88 1023.76
1014.15 1013.80 1013.40 1013.04 1012.79 1012.68 1012.75 1012.96 1013.29 1013.65 1013.98 1014.22 1014.33 1014.32 1014.21 1014.05 1013.92 1013.88 1013.99 1014.28 1014.76 1015.40 1016.18 1017.03 1017.91 1018.76 1019.56 1020.28 1020.91 1021.47 1021.96 1022.40 1022.79 1023.13 1023.44 1023.70 1023.90 1024.05 1024.14 1024.17 1024.15 1024.10 1024.02 1023.93
1014.01 1013.61 1013.20 1012.85 1012.65 1012.63 1012.80 1013.13 1013.54 1013.95 1014.27 1014.45 1014.43 1014.24 1013.92 1013.54 1013.21 1013.02 1013.03 1013.29 1013.80 1014.53 1015.43 1016.43 1017.45 1018.45 1019.36 1020.17 1020.88 1021.49 1022.01 1022.47 1022.88 1023.25 1023.56 1023.83 1024.04 1024.19 1024.28 1024.32 1024.31 1024.27 1024.21 1024.13
1013.77 1013.37 1012.99 1012.71 1012.60 1012.69 1012.97 1013.38 1013.85 1014.27 1014.54 1014.59 1014.41 1014.00 1013.45 1012.85 1012.33 1011.99 1011.92 1012.16 1012.72 1013.55 1014.59 1015.75 1016.94 1018.08 1019.13 1020.04 1020.83 1021.49 1022.05 1022.54 1022.97 1023.34 1023.67 1023.95 1024.17 1024.33 1024.44 1024.49 1024.49 1024.47 1024.42 1024.37
1013.49 1013.14 1012.83 1012.64 1012.63 1012.82 1013.19 1013.67 1014.15 1014.53 1014.70 1014.60 1014.21 1013.58 1012.80 1011.99 1011.30 1010.84 1010.71 1010.96 1011.58 1012.53 1013.71 1015.03 1016.37 1017.66 1018.83 1019.85 1020.72 1021.44 1022.04 1022.56 1023.01 1023.40 1023.75 1024.04 1024.28 1024.46 1024.59 1024.66 1024.69 1024.69 1024.66 1024.61
1013.29 1012.99 1012.76 1012.66 1012.74 1013.01 1013.43 1013.93 1014.37 1014.66 1014.70 1014.42 1013.84 1013.00 1012.02 1011.04 1010.21 1009.68 1009.52 1009.80 1010.49 1011.54 1012.85 1014.31 1015.79 1017.21 1018.48 1019.59 1020.53 1021.30 1021.95 1022.50 1022.98 1023.40 1023.77 1024.09 1024.36 1024.57 1024.72 1024.82 1024.88 1024.90 1024.90 1024.86
1013.25 1013.00 1012.82 1012.79 1012.93 1013.23 1013.66 1014.11 1014.48 1014.65 1014.54 1014.10 1013.34 1012.34 1011.21 1010.12 1009.22 1008.65 1008.51 1008.82 1009.59 1010.72 1012.13 1013.69 1015.26 1016.76 1018.11 1019.28 1020.27 1021.09 1021.78 1022.37 1022.88 1023.34 1023.75 1024.10 1024.40 1024.65 1024.83 1024.97 1025.06 1025.11 1025.12 1025.10
1013.47 1013.23 1013.08 1013.06 1013.20 1013.48 1013.85 1014.22 1014.48 1014.52 1014.26 1013.68 1012.79 1011.69 1010.50 1009.37 1008.47 1007.92 1007.82 1008.19 1009.01 1010.19 1011.65 1013.24 1014.85 1016.38 1017.76 1018.96 1019.98 1020.84 1021.57 1022.20 1022.75 1023.25 1023.69 1024.09 1024.43 1024.71 1024.93 1025.09 1025.21 1025.29 1025.33 1025.31
1013.96 1013.70 1013.53 1013.47 1013.56 1013.77 1014.04 1014.29 1014.41 1014.31 1013.93 1013.25 1012.30 1011.18 1010.00 1008.91 1008.08 1007.60 1007.56 1007.99 1008.84 1010.04 1011.49 1013.05 1014.63 1016.13 1017.49 1018.68 1019.71 1020.59 1021.35 1022.02 1022.62 1023.17 1023.65 1024.08 1024.45 1024.76 1025.01 1025.21 1025.35 1025.45 1025.50 1025.51
1014.68 1014.37 1014.14 1014.01 1014.00 1014.09 1014.23 1014.33 1014.30 1014.08 1013.61 1012.89 1011.95 1010.87 1009.78 1008.81 1008.10 1007.73 1007.78 1008.25 1009.11 1010.28 1011.66 1013.15 1014.64 1016.05 1017.35 1018.50 1019.52 1020.41 1021.20 1021.90 1022.55 1023.13 1023.65 1024.11 1024.50 1024.83 1025.09 1025.30 1025.46 1025.57 1025.65 1025.67
1015.50 1015.13 1014.81 1014.59 1014.46 1014.41 1014.39 1014.34 1014.18 1013.85 1013.33 1012.61 1011.73 1010.77 1009.82 1009.02 1008.47 1008.24 1008.37 1008.88 1009.72 1010.83 1012.11 1013.47 1014.84 1016.14 1017.34 1018.44 1019.43 1020.32 1021.13 1021.87 1022.55 1023.17 1023.72 1024.19 1024.59 1024.92 1025.18 1025.39 1025.55 1025.67 1025.75 1025.79
1016.26 1015.81 1015.42 1015.09 1014.84 1014.65 1014.48 1014.28 1014.01 1013.61 1013.06 1012.37 1011.59 1010.78 1010.02 1009.41 1009.04 1008.95 1009.18 1009.72 1010.53 1011.55 1012.71 1013.93 1015.15 1016.33 1017.44 1018.48 1019.43 1020.33 1021.16 1021.93 1022.65 1023.29 1023.85 1024.33 1024.72 1025.03 1025.27 1025.45 1025.61 1025.73 1025.82 1025.88
1016.78 1016.28 1015.81 1015.39 1015.03 1014.71 1014.41 1014.09 1013.72 1013.26 1012.72 1012.09 1011.43 1010.78 1010.21 1009.80 1009.61 1009.66 1009.98 1010.54 1011.33 1012.26 1013.31 1014.40 1015.49 1016.56 1017.58 1018.57 1019.51 1020.41 1021.27 1022.07 1022.81 1023.47 1024.03 1024.49 1024.86 1025.13 1025.34 1025.50 1025.64 1025.75 1025.85 1025.92
1016.95 1016.40 1015.87 1015.38 1014.92 1014.50 1014.10 1013.68 1013.24 1012.75 1012.22 1011.66 1011.11 1010.62 1010.23 1010.00 1009.97 1010.16 1010.56 1011.16 1011.92 1012.79 1013.74 1014.73 1015.73 1016.72 1017.70 1018.66 1019.61 1020.53 1021.42 1022.25 1023.01 1023.67 1024.23 1024.66 1024.99 1025.23 1025.40 1025.52 1025.63 1025.73 1025.83 1025.92
1016.73 1016.13 1015.56 1015.01 1014.49 1013.99 1013.50 1013.01 1012.52 1012.01 1011.49 1011.00 1010.55 1010.19 1009.96 1009.89 1010.00 1010.30 1010.78 1011.41 1012.17 1013.02 1013.92 1014.86 1015.81 1016.77 1017.73 1018.71 1019.68 1020.63 1021.56 1022.42 1023.19 1023.86 1024.40 1024.81 1025.10 1025.30 1025.42 1025.52 1025.60 1025.69 1025.79 1025.88
1016.18 1015.54 1014.92 1014.32 1013.75 1013.19 1012.64 1012.10 1011.57 1011.04 1010.54 1010.09 1009.73 1009.48 1009.36 1009.42 1009.65 1010.05 1010.60 1011.28 1012.06 1012.91 1013.81 1014.74 1015.69 1016.67 1017.67 1018.68 1019.69 1020.69 1021.65 1022.54 1023.33 1023.99 1024.52 1024.90 1025.16 1025.33 1025.43 1025.50 1025.57 1025.65 1025.74 1025.84
1015.45 1014.76 1014.09 1013.44 1012.82 1012.21 1011.62 1011.04 1010.48 1009.94 1009.45 1009.04 1008.73 1008.55 1008.53 1008.68 1008.99 1009.47 1010.09 1010.82 1011.65 1012.53 1013.46 1014.43 1015.43 1016.46 1017.51 1018.58 1019.65 1020.70 1021.70 1022.61 1023.41 1024.07 1024.58 1024.95 1025.19 1025.34 1025.43 1025.49 1025.56 1025.64 1025.73 1025.82
1014.76 1013.99 1013.26 1012.56 1011.89 1011.25 1010.62 1010.01 1009.42 1008.87 1008.39 1007.99 1007.72 1007.59 1007.62 1007.83 1008.22 1008.76 1009.43 1010.22 1011.09 1012.03 1013.02 1014.05 1015.12 1016.21 1017.33 1018.46 1019.58 1020.67 1021.70 1022.63 1023.43 1024.09 1024.59 1024.96 1025.20 1025.35 1025.45 1025.52 1025.59 1025.68 1025.78 1025.87
1014.29 1013.44 1012.64 1011.89 1011.18 1010.49 1009.83 1009.19 1008.58 1008.02 1007.54 1007.16 1006.90 1006.80 1006.87 1007.12 1007.54 1008.12 1008.84 1009.68 1010.60 1011.60 1012.65 1013.74 1014.87 1016.03 1017.20 1018.38 1019.54 1020.66 1021.70 1022.63 1023.43 1024.08 1024.58 1024.95 1025.21 1025.38 1025.50 1025.60 1025.70 1025.80 1025.90 1025.99
1014.18 1013.26 1012.40 1011.60 1010.84 1010.12 1009.42 1008.76 1008.14 1007.57 1007.08 1006.70 1006.45 1006.36 1006.45 1006.72 1007.16 1007.77 1008.52 1009.38 1010.34 1011.38 1012.47 1013.61 1014.79 1015.99 1017.20 1018.41 1019.58 1020.70 1021.73 1022.65 1023.44 1024.08 1024.59 1024.97 1025.25 1025.45 1025.61 1025.74 1025.87 1025.99 1026.10 1026.18
1014.46 1013.51 1012.61 1011.77 1010.98 1010.22 1009.50 1008.82 1008.18 1007.60 1007.10 1006.72 1006.48 1006.40 1006.49 1006.76 1007.21 1007.82 1008.58 1009.45 1010.43 1011.48 1012.59 1013.76 1014.95 1016.16 1017.38 1018.57 1019.73 1020.83 1021.83 1022.72 1023.49 1024.12 1024.63 1025.02 1025.33 1025.57 1025.76 1025.93 1026.09 1026.23 1026.35 1026.43
1015.10 1014.15 1013.25 1012.39 1011.58 1010.81 1010.06 1009.36 1008.70 1008.11 1007.61 1007.23 1006.99 1006.90 1007.00 1007.27 1007.71 1008.32 1009.06 1009.93 1010.89 1011.93 1013.03 1014.18 1015.36 1016.55 1017.73 1018.90 1020.01 1021.06 1022.01 1022.86 1023.59 1024.21 1024.71 1025.12 1025.44 1025.71 1025.95 1026.15 1026.34 1026.49 1026.62 1026.69
1015.97 1015.07 1014.20 1013.36 1012.54 1011.76 1011.00 1010.28 1009.61 1009.01 1008.50 1008.12 1007.88 1007.80 1007.89 1008.16 1008.60 1009.18 1009.91 1010.74 1011.68 1012.69 1013.75 1014.86 1015.99 1017.13 1018.25 1019.35 1020.40 1021.38 1022.27 1023.07 1023.76 1024.34 1024.84 1025.24 1025.59 1025.88 1026.14 1026.37 1026.57 1026.73 1026.86 1026.92
1016.91 1016.10 1015.30 1014.49 1013.70 1012.91 1012.14 1011.40 1010.72 1010.12 1009.61 1009.24 1009.01 1008.94 1009.04 1009.31 1009.73 1010.30 1011.00 1011.81 1012.69 1013.65 1014.66 1015.70 1016.77 1017.83 1018.88 1019.90 1020.87 1021.77 1022.60 1023.33 1023.97 1024.52 1024.99 1025.40 1025.74 1026.04 1026.31 1026.55 1026.76 1026.92 1027.04 1027.09
1017.79 1017.10 1016.37 1015.62 1014.85 1014.06 1013.29 1012.54 1011.85 1011.25 1010.75 1010.39 1010.19 1010.14 1010.26 1010.54 1010.97 1011.53 1012.21 1012.98 1013.82 1014.73 1015.67 1016.64 1017.62 1018.60 1019.56 1020.49 1021.38 1022.21 1022.96 1023.63 1024.22 1024.73 1025.18 1025.56 1025.90 1026.20 1026.46 1026.69 1026.89 1027.05 1027.15 1027.20
Thickness
5499 5499 5504 5517 5527 5535 5542 5546 5552 5565 5577 5575 5576 5583 5594 5602 5607 5611 5616 5620 5623 5628 5634 5638 5640 5642 5643 5643 5644 5643 5642 5641 5640 5639 5638 5636 5635 5635 5634 5634 5634 5633 5633 5632
5488 5493 5509 5518 5524 5528 5532 5535 5541 5553 5563 5565 5566 5574 5586 5593 5598 5604 5608 5611 5615 5619 5623 5627 5630 5632 5634 5635 5635 5635 5635 5634 5634 5633 5632 5631 5629 5627 5627 5627 5626 5626 5626 5625
5485 5498 5507 5511 5513 5516 5523 5526 5531 5536 5545 5554 5555 5559 5574 5585 5591 5595 5599 5604 5607 5610 5613 5616 5619 5621 5623 5625 5627 5628 5628 5627 5626 5626 5625 5623 5621 5619 5618 5618 5618 5619 5618 5617
5482 5493 5499 5501 5504 5508 5510 5524 5527 5528 5525 5528 5540 5534 5563 5573 5577 5582 5586 5590 5595 5600 5603 5606 5608 5610 5613 5616 5618 5620 5620 5619 5618 5618 5618 5617 5615 5613 5612 5612 5611 5611 5610 5609
5475 5485 5487 5491 5498 5504 5506 5516 5518 5520 5517 5517 5528 5525 5549 5564 5564 5570 5575 5580 5585 5590 5593 5596 5598 5600 5603 5606 5608 5611 5612 5612 5611 5611 5610 5610 5609 5608 5607 5605 5604 5603 5602 5602
5474 5481 5483 5487 5494 5499 5502 5504 5506 5509 5505 5501 5521 5522 5536 5550 5559 5563 5566 5570 5574 5578 5581 5585 5587 5590 5593 5596 5598 5601 5603 5604 5604 5603 5602 5602 5602 5601 5599 5598 5596 5595 5594 5593
5462 5469 5475 5480 5479 5484 5486 5481 5478 5481 5486 5498 5525 5522 5529 5543 5554 5558 5559 5559 5563 5566 5569 5572 5575 5578 5582 5585 5588 5591 5593 5595 5595 5595 5594 5594 5594 5594 5594 5592 5590 5589 5587 5585
5442 5449 5464 5469 5469 5469 5474 5476 5471 5472 5482 5497 5514 5515 5523 5540 5545 5549 5549 5549 5551 5554 5557 5561 5565 5568 5571 5575 5578 5581 5584 5585 5586 5586 5586 5585 5586 5586 5586 5585 5584 5583 5581 5580
5429 5440 5459 5464 5469 5470 5467 5469 5479 5476 5483 5485 5501 5515 5518 5528 5528 5531 5533 5535 5536 5540 5545 5549 5553 5557 5561 5564 5568 5572 5575 5576 5578 5578 5577 5577 5577 5578 5578 5577 5576 5575 5574 5573
5424 5424 5444 5455 5462 5464 5467 5469 5463 5463 5470 5480 5496 5503 5502 5508 5512 5514 5516 5518 5522 5527 5532 5537 5541 5546 5550 5554 5557 5562 5565 5567 5568 5569 5569 5569 5569 5569 5569 5569 5568 5567 5566 5565
5422 5414 5428 5440 5440 5443 5452 5454 5456 5459 5467 5472 5479 5486 5499 5498 5503 5502 5503 5506 5509 5514 5519 5524 5529 5534 5539 5542 5546 5550 5554 5557 5558 5560 5560 5560 5560 5560 5560 5560 5559 5558 5558 5556
5418 5414 5413 5425 5432 5434 5440 5445 5446 5445 5452 5467 5468 5469 5486 5487 5489 5490 5489 5492 5496 5501 5506 5511 5517 5522 5526 5530 5535 5539 5543 5546 5549 5550 5551 5551 5551 5551 5551 5551 5550 5549 5548 5547
5408 5403 5402 5414 5419 5423 5425 5432 5435 5438 5445 5455 5460 5462 5474 5475 5475 5476 5477 5480 5483 5488 5492 5497 5504 5509 5514 5519 5524 5528 5532 5536 5539 5541 5541 5540 5541 5541 5541 5541 5540 5540 5538 5537
5405 5395 5397 5401 5408 5411 5414 5420 5426 5427 5433 5442 5452 5451 5457 5458 5459 5461 5465 5468 5471 5475 5479 5483 5488 5494 5501 5507 5512 5517 5521 5526 5528 5530 5530 5530 5531 5531 5530 5530 5530 5529 5529 5528
5392 5389 5394 5402 5413 5415 5414 5415 5420 5421 5428 5434 5442 5443 5445 5445 5446 5448 5452 5457 5461 5463 5467 5470 5474 5480 5487 5493 5499 5505 5510 5514 5517 5519 5519 5520 5520 5520 5519 5519 5519 5519 5518 5517
5381 5381 5388 5397 5412 5413 5410 5413 5416 5419 5422 5427 5430 5429 5434 5435 5438 5439 5441 5446 5448 5451 5454 5458 5463 5468 5474 5480 5487 5493 5499 5503 5506 5508 5508 5509 5509 5509 5509 5508 5508 5508 5507 5506
5374 5372 5379 5387 5403 5402 5397 5401 5405 5410 5411 5413 5415 5417 5421 5424 5426 5427 5431 5434 5436 5438 5441 5446 5451 5456 5462 5468 5475 5481 5487 5492 5495 5497 5498 5498 5498 5498 5498 5498 5498 5497 5496 5495
5365 5366 5369 5377 5384 5378 5388 5396 5398 5400 5401 5403 5404 5407 5410 5412 5416 5418 5421 5423 5424 5428 5432 5436 5441 5446 5451 5457 5463 5469 5476 5480 5483 5485 5486 5487 5487 5487 5487 5487 5487 5487 5486 5485
5366 5363 5364 5366 5371 5381 5385 5385 5383 5383 5387 5390 5393 5397 5401 5405 5408 5410 5413 5414 5416 5418 5422 5427 5432 5437 5442 5447 5453 5459 5464 5469 5471 5473 5475 5476 5476 5476 5476 5476 5476 5476 5475 5474
5362 5358 5355 5360 5362 5368 5369 5374 5378 5379 5378 5379 5382 5385 5388 5392 5393 5398 5402 5403 5406 5411 5414 5419 5424 5428 5432 5437 5442 5448 5452 5455 5459 5462 5464 5465 5465 5465 5465 5465 5465 5465 5465 5464
5347 5348 5347 5350 5354 5357 5359 5367 5373 5365 5363 5367 5372 5375 5377 5379 5380 5385 5390 5393 5397 5401 5405 5410 5414 5418 5421 5426 5432 5436 5439 5443 5447 5450 5452 5453 5454 5455 5455 5455 5455 5455 5455 5454
5342 5342 5342 5343 5344 5346 5351 5356 5351 5349 5355 5361 5363 5366 5368 5370 5373 5377 5380 5383 5387 5392 5396 5400 5404 5408 5411 5416 5421 5424 5427 5431 5435 5437 5440 5441 5443 5444 5444 5444 5444 5444 5444 5443
5340 5334 5334 5336 5339 5343 5344 5343 5344 5345 5347 5351 5353 5357 5358 5360 5363 5367 5370 5374 5378 5381 5385 5389 5393 5397 5400 5404 5409 5412 5416 5420 5423 5425 5427 5429 5431 5432 5432 5433 5433 5433 5433 5433
5337 5334 5332 5332 5338 5339 5339 5338 5339 5340 5341 5343 5345 5347 5350 5352 5355 5358 5361 5364 5368 5371 5375 5379 5383 5386 5389 5393 5397 5401 5405 5409 5412 5413 5415 5417 5419 5420 5421 5421 5422 5422 5422 5422
5331 5329 5326 5326 5328 5331 5334 5332 5331 5333 5335 5337 5338 5340 5342 5344 5347 5350 5352 5355 5358 5362 5366 5370 5373 5376 5379 5383 5387 5391 5395 5398 5400 5402 5404 5405 5406 5407 5408 5409 5409 5410 5411 5411
5325 5321 5317 5320 5321 5318 5320 5323 5324 5325 5327 5329 5330 5332 5335 5338 5340 5342 5344 5347 5350 5353 5356 5360 5363 5367 5370 5373 5377 5381 5384 5387 5389 5391 5392 5393 5395 5396 5396 5397 5397 5398 5399 5400